Home > Weather > Biel > Past weeks

Flag for Switzerland Past Weather in Biel, Switzerland — Yesterday and Last 2 Weeks

Now
60 °F

Cool.


Feels Like: 60 °F
Forecast: 60 / 74 °F
Wind: 1 mph from Southeast

Location: Grenchen

Current Time: Jul 30, 2016 at 7:27:40 AM

Latest Report: Jul 30, 2016 at 6:00 AM


Visibility: N/A

Pressure: 30.01 "Hg

Humidity: 98%

Dew Point: 60 °F

Location of BielLocation

Past Weather in Biel — Graph

°F

Biel Temperature Yesterday

Maximum temperature yesterday: 82 °F (at 5:00 PM)
Minimum temperature yesterday: 61 °F (at 7:00 AM)
Average temperature yesterday: 72 °F

High & Low Weather Summary for the Past Weeks

 TemperatureHumidityPressure
High91 °F (Jul 20, 6:00 PM)100% (Jul 23, 4:00 AM)30.38 "Hg (Jul 23, 4:00 AM)
Low44 °F (Jul 16, 6:00 AM)31% (Jul 20, 5:00 PM)29.89 "Hg (Jul 20, 6:00 PM)
Average69 °F73%30.09 "Hg
* Reported Jul 15 6:00 AM — Jul 30 6:00 AM, Biel, Weather by CustomWeather, © 2016

Note: Actual official high and low records may vary slightly from our data, if they occured in-between our weather recording intervals... More about our weather records

Advertising

Biel Weather History for the Previous 24 Hours

Scroll right to see more
 ConditionsComfort  
Time TempWeatherWind HumidityBarometerVisibility
6:00 AM
Sat, Jul 30
60 °FCool.1 mph98%30.01 "HgN/A
5:00 AM60 °FCool.1 mph97%30.01 "HgN/A
4:00 AM63 °FMild.1 mph93%30.01 "HgN/A
3:00 AM61 °FCool.1 mph95%30.02 "HgN/A
2:00 AM63 °FMild.1 mph93%30.01 "HgN/A
1:00 AM64 °FMild.2 mph89%30.01 "HgN/A
12:00 AM66 °FMild.2 mph83%30.00 "HgN/A
11:00 PM
Fri, Jul 29
69 °FMild.6 mph78%29.99 "HgN/A
10:00 PM74 °FMild.3 mph61%29.96 "HgN/A
9:00 PM76 °FMild.3 mph56%29.93 "HgN/A
8:00 PM80 °FWarm.5 mph50%29.92 "HgN/A
7:00 PM82 °FWarm.6 mph46%29.91 "HgN/A
6:00 PM82 °FWarm.8 mph43%29.91 "HgN/A
5:00 PM82 °FWarm.9 mph43%29.93 "HgN/A
4:00 PM82 °FWarm.10 mph44%29.93 "HgN/A
3:00 PM81 °FWarm.9 mph45%29.95 "HgN/A
2:00 PM79 °FWarm.6 mph48%29.97 "HgN/A
1:00 PM77 °FWarm.6 mph51%29.98 "HgN/A
12:00 PM76 °FMild.7 mph56%30.00 "HgN/A
11:00 AM73 °FMild.7 mph60%30.02 "HgN/A
10:00 AM71 °FMild.5 mph65%30.03 "HgN/A
9:00 AM68 °FMild.3 mph75%30.05 "HgN/A
8:00 AM65 °FMild.1 mph85%30.06 "HgN/A
7:00 AM61 °FCool.1 mph92%30.07 "HgN/A
Weather by CustomWeather, © 2016

See weather overviewHow to use our weather pages